wikidevi.com alexa rank chart, wikidevi.com alexa rank daily changes

wikidevi.com alexa rank chart, wikidevi.com alexa rank daily changes

wikidevi.com
Actual rank:
91 770

RANK HISTORY

Date Rank Diff
2017/01/22 91 770 +808
2017/01/21 90 962 +610
2017/01/20 90 352 +1 336
2017/01/19 89 016 +1 612
2017/01/18 87 404 +952
2017/01/17 86 452 +888
2017/01/16 85 564 -247
2017/01/15 85 811 -190
2017/01/14 86 001 -60
2017/01/13 86 061 +1 215
2017/01/12 84 846 +502
2017/01/11 84 344 +618
2017/01/10 83 726 -390
2017/01/09 84 116 +988
2017/01/08 83 128 -3 616
2017/01/07 86 744 +212
2017/01/06 86 532 +1 132
2017/01/05 85 400 +93
2017/01/04 85 307 -1 164
2017/01/03 86 471 +381
2017/01/02 86 090 -2 194
2017/01/01 88 284 -2 049
2016/12/31 90 333 -15
2016/12/30 90 348 -566
2016/12/29 90 914 +637
2016/12/28 90 277 -280
2016/12/27 90 557 +1 818
2016/12/26 88 739 -920
2016/12/25 89 659 -2 230
2016/12/24 91 889 +1 173
2016/12/23 90 716 -984
2016/12/22 91 700 +32
2016/12/21 91 668 +1 514
2016/12/20 90 154 -1 105
2016/12/19 91 259 +6 468
2016/12/18 84 791 -845
2016/12/17 85 636 -1 194
2016/12/16 86 830 -39
2016/12/15 86 869 -274
2016/12/14 87 143 +2 348
2016/12/13 84 795 -613
2016/12/12 85 408 -246
2016/12/11 85 654 -1 368
2016/12/10 87 022 +97
2016/12/09 86 925 -1 838
2016/12/08 88 763 -1 882
2016/12/07 90 645 +1 289
2016/12/06 89 356 +2 543
2016/12/05 86 813 +2 856
2016/12/04 83 957 +1 380
2016/12/02 82 577 +786
2016/12/01 81 791 +1 893
2016/11/30 79 898 -626
2016/11/29 80 524 -341
2016/11/28 80 865 +196
2016/11/27 80 669 -1 964
2016/11/26 82 633 +3 435
2016/11/25 79 198 -696
2016/11/24 79 894 +1 661
2016/11/23 78 233

WIDGET FOR YOUR SITE

DOMAINS WITH THE NEAREST RANK

Domain Rank
junocloud.me 91 765
redshu.com 91 766
tubecorporate.com 91 767
hyspace.io 91 768
evilmadscientist.com 91 769
wikidevi.com 91 770
nantoka-antenna.com 91 771
francy-annu.com 91 772
moneyfarm.com 91 773
onemorething.nl 91 774
priznajem.hr 91 775

DOMAINS WITH THE NEAREST RANK BY TLD .com

Domain Rank
alice-books.com 91 758
theappguruz.com 91 763
redshu.com 91 766
tubecorporate.com 91 767
evilmadscientist.com 91 769
wikidevi.com 91 770
nantoka-antenna.com 91 771
francy-annu.com 91 772
moneyfarm.com 91 773
burnker.com 91 776
parkcameras.com 91 779